Home   Weather   Chilliwack   Past weeks

Flag for Canada Past Weather in Chilliwack, British Columbia, Canada — Yesterday and Last 2 Weeks

Now
34 °F

Chilly.


Feels Like: 29 °F
Forecast: 34 / 40 °F
Wind: 6 mph from Northwest

Location: Agassiz

Current Time: Jan 16, 2017 at 5:09:18 am

Latest Report: Jan 16, 2017 at 4:00 am


Visibility: N/A

Pressure: 30.22 "Hg

Humidity: 76%

Dew Point: 27 °F

Location of ChilliwackLocation

Past Weather in Chilliwack — Graph

°F

Chilliwack Temperature Yesterday

Maximum temperature yesterday: 35 °F (at 1:00 pm)
Minimum temperature yesterday: 26 °F (at 8:00 am)
Average temperature yesterday: 30 °F

High & Low Weather Summary for the Past Weeks

 TemperatureHumidityPressure
High40 °F (Jan 8, 2:00 pm)100% (Jan 9, 11:00 am)30.51 "Hg (Jan 9, 11:00 am)
Low15 °F (Jan 12, 9:00 am)28% (Jan 11, 5:00 am)29.48 "Hg (Jan 8, 5:00 pm)
Average28 °F54%30.12 "Hg
* Reported Jan 1 4:00 am — Jan 16 4:00 am, Chilliwack, Weather by CustomWeather, © 2017

Note: Actual official high and low records may vary slightly from our data, if they occured in-between our weather recording intervals... More about our weather records

Advertising

Chilliwack Weather History for the Previous 24 Hours

Scroll right to see more
 ConditionsComfort  
Time TempWeatherWind HumidityBarometerVisibility
4:00 am
Mon, Jan 16
34 °FChilly.6 mph76%30.22 "HgN/A
3:00 am33 °FChilly.3 mph76%30.28 "HgN/A
2:00 am31 °FChilly.2 mph79%30.26 "HgN/A
1:00 am32 °FChilly.3 mph78%30.28 "HgN/A
12:00 am31 °FChilly.3 mph76%30.30 "HgN/A
11:00 pm
Sun, Jan 15
29 °FChilly.2 mph81%30.32 "HgN/A
10:00 pm31 °FChilly.5 mph76%30.32 "HgN/A
9:00 pm32 °FChilly.6 mph74%30.32 "HgN/A
8:00 pm31 °FChilly.5 mph74%30.31 "HgN/A
7:00 pm27 °FChilly.1 mph76%30.32 "HgN/A
6:00 pm27 °FChilly.2 mph79%30.32 "HgN/A
5:00 pm28 °FChilly.No wind77%30.32 "HgN/A
4:00 pm34 °FChilly.No wind61%30.31 "HgN/A
3:00 pm35 °FChilly.1 mph62%30.31 "HgN/A
2:00 pm34 °FChilly.1 mph62%30.28 "HgN/A
1:00 pm35 °FChilly.1 mph61%30.27 "HgN/A
12:00 pm32 °FChilly.1 mph64%30.30 "HgN/A
11:00 am29 °FChilly.No wind72%30.32 "HgN/A
10:00 am28 °FChilly.2 mph74%30.32 "HgN/A
9:00 am28 °FChilly.1 mph76%30.31 "HgN/A
8:00 am26 °FChilly.1 mph87%30.30 "HgN/A
7:00 am27 °FChilly.2 mph81%30.32 "HgN/A
6:00 am27 °FChilly.2 mph78%30.31 "HgN/A
5:00 am28 °FChilly.1 mph78%30.31 "HgN/A
Weather by CustomWeather, © 2017

See weather overviewHow to use our weather pages